| time (UTC) | temp F | wind direction | speed knots | gust knots | rain 1hr in | rain 24hr in | rain mn in | humidity % | barometer mb |
| 20260504174938 | 75 | 244 | 0.0 | 4.3 | 0.00 | 0.00 | 0.00 | 43 | 1017.7 |
| 20260504174441 | 76 | 205 | 3.5 | 4.3 | 0.00 | 0.00 | 0.00 | 40 | 1017.7 |
| 20260504173939 | 76 | 207 | 2.6 | 4.3 | 0.00 | 0.00 | 0.00 | 40 | 1017.7 |
| 20260504173439 | 76 | 187 | 1.7 | 2.6 | 0.00 | 0.00 | 0.00 | 40 | 1017.8 |
| 20260504172939 | 76 | 172 | 0.9 | 2.6 | 0.00 | 0.00 | 0.00 | 43 | 1017.9 |
| 20260504172437 | 75 | 0 | 0.0 | 2.6 | 0.00 | 0.00 | 0.00 | 43 | 1018.1 |
| 20260504171941 | 76 | 267 | 2.6 | 2.6 | 0.00 | 0.00 | 0.00 | 42 | 1018.1 |
| 20260504171437 | 77 | 235 | 0.9 | 1.7 | 0.00 | 0.00 | 0.00 | 41 | 1018.2 |
| 20260504170943 | 76 | 236 | 0.0 | 1.7 | 0.00 | 0.00 | 0.00 | 41 | 1018.2 |
| 20260504170437 | 76 | 0 | 0.0 | 4.3 | 0.00 | 0.00 | 0.00 | 45 | 1018.3 |
| 20260504160437 | 74 | 193 | 0.9 | 3.5 | 0.00 | 0.00 | 0.00 | 45 | 1019.2 |
| 20260504150942 | 72 | 180 | 0.9 | 2.6 | 0.00 | 0.00 | 0.00 | 47 | 1019.5 |
| 20260504150441 | 72 | 172 | 0.9 | 4.3 | 0.00 | 0.00 | 0.00 | 46 | 1019.5 |
| 20260504140944 | 68 | 0 | 0.0 | 0.0 | 0.00 | 0.00 | 0.00 | 53 | 1019.6 |
| 20260504140439 | 68 | 0 | 0.0 | 0.0 | 0.00 | 0.00 | 0.00 | 53 | 1019.7 |
| 20260504130439 | 62 | 0 | 0.0 | 0.0 | 0.00 | 0.00 | 0.00 | 62 | 1019.6 |
| 20260504110441 | 44 | 0 | 0.0 | 0.0 | 0.00 | 0.00 | 0.00 | 88 | 1019.1 |
| 20260504100440 | 44 | 0 | 0.0 | 0.0 | 0.00 | 0.00 | 0.00 | 86 | 1019.1 |
| 20260504081939 | 46 | 0 | 0.0 | 0.0 | 0.00 | 0.00 | 0.00 | 83 | 1019.1 |
| 20260504081442 | 46 | 0 | 0.0 | 0.0 | 0.00 | 0.00 | 0.00 | 83 | 1019.0 |
| 20260504080941 | 46 | 0 | 0.0 | 0.0 | 0.00 | 0.00 | 0.00 | 83 | 1019.0 |
| 20260504080438 | 47 | 0 | 0.0 | 0.0 | 0.00 | 0.00 | 0.00 | 82 | 1019.1 |
| 20260504070340 | 48 | 0 | 0.0 | 0.0 | 0.00 | 0.00 | 0.00 | 76 | 1019.3 |
| 20260504050340 | 51 | 0 | 0.0 | 0.0 | 0.00 | 0.00 | 0.00 | 72 | 1019.6 |
| 20260504045839 | 51 | 0 | 0.0 | 0.0 | 0.00 | 0.00 | 0.00 | 72 | 1019.6 |
| 20260504045340 | 52 | 0 | 0.0 | 0.0 | 0.00 | 0.00 | 0.00 | 72 | 1019.5 |
| 20260504044842 | 52 | 0 | 0.0 | 0.0 | 0.00 | 0.00 | 0.00 | 72 | 1019.5 |
| 20260504044342 | 52 | 0 | 0.0 | 0.0 | 0.00 | 0.00 | 0.00 | 72 | 1019.4 |
| 20260504043839 | 52 | 0 | 0.0 | 0.0 | 0.00 | 0.00 | 0.00 | 72 | 1019.5 |
| 20260504043342 | 52 | 0 | 0.0 | 0.0 | 0.00 | 0.00 | 0.00 | 70 | 1019.4 |
| 20260504042838 | 52 | 0 | 0.0 | 0.0 | 0.00 | 0.00 | 0.00 | 69 | 1019.5 |
| 20260504042338 | 52 | 0 | 0.0 | 0.0 | 0.00 | 0.00 | 0.00 | 69 | 1019.4 |
| 20260504041844 | 52 | 0 | 0.0 | 0.0 | 0.00 | 0.00 | 0.00 | 68 | 1019.5 |
| 20260504041336 | 53 | 0 | 0.0 | 0.0 | 0.00 | 0.00 | 0.00 | 68 | 1019.5 |
| 20260504040838 | 53 | 0 | 0.0 | 0.0 | 0.00 | 0.00 | 0.00 | 68 | 1019.6 |
| 20260504040338 | 53 | 0 | 0.0 | 0.0 | 0.00 | 0.00 | 0.00 | 68 | 1019.6 |
| 20260504035841 | 53 | 0 | 0.0 | 0.0 | 0.00 | 0.00 | 0.00 | 67 | 1019.7 |
| 20260504035337 | 54 | 0 | 0.0 | 0.0 | 0.00 | 0.00 | 0.00 | 65 | 1019.7 |
| 20260504034839 | 54 | 0 | 0.0 | 0.0 | 0.00 | 0.00 | 0.00 | 65 | 1019.7 |
| 20260504034342 | 54 | 0 | 0.0 | 0.0 | 0.00 | 0.00 | 0.00 | 66 | 1019.7 |
| 20260504033836 | 53 | 0 | 0.0 | 0.0 | 0.00 | 0.00 | 0.00 | 66 | 1019.6 |
| 20260504033337 | 53 | 0 | 0.0 | 0.0 | 0.00 | 0.00 | 0.00 | 67 | 1019.6 |
| 20260504032836 | 53 | 0 | 0.0 | 0.0 | 0.00 | 0.00 | 0.00 | 67 | 1019.5 |
| 20260504032340 | 53 | 0 | 0.0 | 0.0 | 0.00 | 0.00 | 0.00 | 66 | 1019.6 |
| 20260504031842 | 53 | 0 | 0.0 | 0.0 | 0.00 | 0.00 | 0.00 | 66 | 1019.6 |
| 20260504031338 | 53 | 0 | 0.0 | 0.0 | 0.00 | 0.00 | 0.00 | 67 | 1019.6 |
| 20260504030841 | 53 | 0 | 0.0 | 0.0 | 0.00 | 0.00 | 0.00 | 65 | 1019.6 |
| 20260504030341 | 54 | 0 | 0.0 | 0.0 | 0.00 | 0.00 | 0.00 | 65 | 1019.6 |
| 20260504025841 | 54 | 0 | 0.0 | 0.0 | 0.00 | 0.00 | 0.00 | 64 | 1019.6 |
| 20260504025341 | 54 | 0 | 0.0 | 0.0 | 0.00 | 0.00 | 0.00 | 63 | 1019.7 |
| 20260504024837 | 54 | 0 | 0.0 | 0.0 | 0.00 | 0.00 | 0.00 | 63 | 1019.5 |
| 20260504024338 | 55 | 0 | 0.0 | 0.0 | 0.00 | 0.00 | 0.00 | 63 | 1019.5 |
| 20260504023841 | 55 | 0 | 0.0 | 0.0 | 0.00 | 0.00 | 0.00 | 62 | 1019.5 |
| 20260504023337 | 55 | 0 | 0.0 | 0.0 | 0.00 | 0.00 | 0.00 | 61 | 1019.6 |
| 20260504022840 | 55 | 0 | 0.0 | 0.0 | 0.00 | 0.00 | 0.00 | 61 | 1019.4 |
| 20260504022336 | 56 | 0 | 0.0 | 0.0 | 0.00 | 0.00 | 0.00 | 60 | 1019.4 |
| 20260504021838 | 56 | 0 | 0.0 | 0.0 | 0.00 | 0.00 | 0.00 | 58 | 1019.3 |
| 20260504021342 | 56 | 0 | 0.0 | 0.0 | 0.00 | 0.00 | 0.00 | 59 | 1019.3 |
| 20260504020837 | 57 | 0 | 0.0 | 0.0 | 0.00 | 0.00 | 0.00 | 59 | 1019.3 |
| 20260504020337 | 57 | 0 | 0.0 | 0.0 | 0.00 | 0.00 | 0.00 | 56 | 1019.2 |
| 20260504015839 | 57 | 0 | 0.0 | 0.0 | 0.00 | 0.00 | 0.00 | 57 | 1019.1 |
| 20260504015339 | 57 | 0 | 0.0 | 0.0 | 0.00 | 0.00 | 0.00 | 56 | 1018.9 |
| 20260504014837 | 57 | 0 | 0.0 | 0.9 | 0.00 | 0.00 | 0.00 | 56 | 1019.0 |
| 20260504014338 | 58 | 0 | 0.0 | 0.9 | 0.00 | 0.00 | 0.00 | 56 | 1019.0 |
| 20260504013838 | 58 | 0 | 0.0 | 0.0 | 0.00 | 0.00 | 0.00 | 56 | 1018.9 |
| 20260504013339 | 58 | 0 | 0.0 | 0.0 | 0.00 | 0.00 | 0.00 | 56 | 1018.9 |
| 20260504012841 | 58 | 0 | 0.0 | 0.0 | 0.00 | 0.00 | 0.00 | 56 | 1018.8 |
| 20260504012335 | 58 | 0 | 0.0 | 0.0 | 0.00 | 0.00 | 0.00 | 55 | 1018.7 |
| 20260504011835 | 58 | 0 | 0.0 | 0.0 | 0.00 | 0.00 | 0.00 | 54 | 1018.7 |
| 20260504011340 | 59 | 0 | 0.0 | 0.0 | 0.00 | 0.00 | 0.00 | 54 | 1018.7 |
| 20260504010842 | 59 | 0 | 0.0 | 0.0 | 0.00 | 0.00 | 0.00 | 53 | 1018.8 |
| 20260504010341 | 60 | 0 | 0.0 | 0.0 | 0.00 | 0.00 | 0.00 | 52 | 1018.6 |
| 20260504005838 | 60 | 0 | 0.0 | 0.0 | 0.00 | 0.00 | 0.00 | 51 | 1018.5 |
| 20260504005342 | 61 | 0 | 0.0 | 0.0 | 0.00 | 0.00 | 0.00 | 50 | 1018.4 |
| 20260504004840 | 61 | 0 | 0.0 | 0.0 | 0.00 | 0.00 | 0.00 | 50 | 1018.5 |
| 20260504004338 | 62 | 0 | 0.0 | 0.0 | 0.00 | 0.00 | 0.00 | 48 | 1018.4 |
| 20260504003836 | 62 | 0 | 0.0 | 0.0 | 0.00 | 0.00 | 0.00 | 47 | 1018.5 |
| 20260504003340 | 63 | 0 | 0.0 | 0.0 | 0.00 | 0.00 | 0.00 | 47 | 1018.3 |
| 20260504002835 | 63 | 0 | 0.0 | 0.0 | 0.00 | 0.00 | 0.00 | 46 | 1018.3 |
| 20260504002337 | 64 | 0 | 0.0 | 0.0 | 0.00 | 0.00 | 0.00 | 46 | 1018.3 |
| 20260504001845 | 64 | 0 | 0.0 | 1.7 | 0.00 | 0.00 | 0.00 | 45 | 1018.3 |
| 20260504001339 | 64 | 0 | 0.0 | 1.7 | 0.00 | 0.00 | 0.00 | 44 | 1018.3 |
| 20260504000841 | 65 | 171 | 0.9 | 0.9 | 0.00 | 0.00 | 0.00 | 45 | 1018.3 |
| 20260504000337 | 65 | 0 | 0.0 | 0.9 | 0.00 | 0.00 | 0.00 | 45 | 1018.3 |
| 20260503235843 | 65 | 0 | 0.0 | 0.9 | 0.00 | 0.00 | 0.00 | 44 | 1018.2 |
| 20260503235342 | 66 | 0 | 0.0 | 0.9 | 0.00 | 0.00 | 0.00 | 43 | 1018.0 |
| 20260503234842 | 66 | 0 | 0.0 | 0.9 | 0.00 | 0.00 | 0.00 | 43 | 1018.0 |
| 20260503234337 | 66 | 0 | 0.0 | 0.9 | 0.00 | 0.00 | 0.00 | 42 | 1017.9 |
| 20260503233840 | 66 | 0 | 0.0 | 1.7 | 0.00 | 0.00 | 0.00 | 41 | 1018.1 |
| 20260503233339 | 67 | 0 | 0.0 | 1.7 | 0.00 | 0.00 | 0.00 | 41 | 1018.0 |
| 20260503232843 | 67 | 162 | 0.9 | 1.7 | 0.00 | 0.00 | 0.00 | 43 | 1018.1 |
| 20260503232341 | 67 | 0 | 0.0 | 1.7 | 0.00 | 0.00 | 0.00 | 41 | 1018.0 |
| 20260503231838 | 67 | 182 | 0.9 | 0.9 | 0.00 | 0.00 | 0.00 | 41 | 1018.1 |
| 20260503231337 | 67 | 183 | 0.0 | 1.7 | 0.00 | 0.00 | 0.00 | 40 | 1018.1 |
| 20260503230836 | 67 | 0 | 0.0 | 1.7 | 0.00 | 0.00 | 0.00 | 40 | 1018.1 |
| 20260503230336 | 67 | 165 | 0.9 | 1.7 | 0.00 | 0.00 | 0.00 | 40 | 1018.2 |
| 20260503225841 | 68 | 170 | 0.9 | 1.7 | 0.00 | 0.00 | 0.00 | 41 | 1018.1 |
| 20260503225340 | 68 | 170 | 0.0 | 2.6 | 0.00 | 0.00 | 0.00 | 41 | 1018.2 |
| 20260503224839 | 68 | 0 | 0.0 | 2.6 | 0.00 | 0.00 | 0.00 | 42 | 1018.2 |
| 20260503224339 | 68 | 140 | 0.9 | 4.3 | 0.00 | 0.00 | 0.00 | 41 | 1018.3 |
| 20260503223836 | 68 | 0 | 0.0 | 4.3 | 0.00 | 0.00 | 0.00 | 40 | 1018.1 |
| 20260503223336 | 68 | 0 | 0.0 | 0.9 | 0.00 | 0.00 | 0.00 | 39 | 1018.2 |
| 20260503222838 | 68 | 0 | 0.0 | 1.7 | 0.00 | 0.00 | 0.00 | 38 | 1018.2 |
| 20260503222340 | 68 | 171 | 0.0 | 1.7 | 0.00 | 0.00 | 0.00 | 39 | 1018.3 |
| 20260503221837 | 68 | 172 | 0.9 | 1.7 | 0.00 | 0.00 | 0.00 | 37 | 1018.3 |
| 20260503221338 | 68 | 162 | 0.9 | 4.3 | 0.00 | 0.00 | 0.00 | 38 | 1018.2 |
| 20260503220841 | 68 | 167 | 1.7 | 4.3 | 0.00 | 0.00 | 0.00 | 36 | 1018.3 |
| 20260503220342 | 68 | 148 | 0.9 | 4.3 | 0.00 | 0.00 | 0.00 | 37 | 1018.2 |
| 20260503215839 | 68 | 207 | 0.9 | 4.3 | 0.00 | 0.00 | 0.00 | 34 | 1018.3 |
| 20260503215340 | 68 | 168 | 0.0 | 4.3 | 0.00 | 0.00 | 0.00 | 36 | 1018.2 |
| 20260503214834 | 69 | 141 | 1.7 | 7.0 | 0.00 | 0.00 | 0.00 | 35 | 1018.3 |
| 20260503214338 | 69 | 170 | 0.0 | 7.0 | 0.00 | 0.00 | 0.00 | 36 | 1018.4 |
| 20260503213843 | 69 | 174 | 0.9 | 2.6 | 0.00 | 0.00 | 0.00 | 38 | 1018.3 |
| 20260503213338 | 69 | 174 | 0.9 | 2.6 | 0.00 | 0.00 | 0.00 | 38 | 1018.3 |
| 20260503212838 | 69 | 231 | 0.0 | 3.5 | 0.00 | 0.00 | 0.00 | 38 | 1018.3 |
| 20260503212341 | 69 | 166 | 0.9 | 3.5 | 0.00 | 0.00 | 0.00 | 39 | 1018.4 |
| 20260503211840 | 69 | 214 | 0.0 | 2.6 | 0.00 | 0.00 | 0.00 | 37 | 1018.4 |
| 20260503211341 | 69 | 191 | 0.9 | 5.2 | 0.00 | 0.00 | 0.00 | 36 | 1018.4 |
| 20260503210838 | 69 | 192 | 0.9 | 5.2 | 0.00 | 0.00 | 0.00 | 38 | 1018.5 |
| 20260503210343 | 69 | 195 | 0.9 | 3.5 | 0.00 | 0.00 | 0.00 | 36 | 1018.5 |
| 20260503205839 | 69 | 154 | 0.9 | 2.6 | 0.00 | 0.00 | 0.00 | 38 | 1018.5 |
| 20260503205336 | 69 | 0 | 0.0 | 3.5 | 0.00 | 0.00 | 0.00 | 37 | 1018.6 |
| 20260503204843 | 69 | 226 | 0.9 | 3.5 | 0.00 | 0.00 | 0.00 | 34 | 1018.6 |
| 20260503204341 | 69 | 184 | 0.9 | 4.3 | 0.00 | 0.00 | 0.00 | 34 | 1018.8 |
| 20260503203836 | 69 | 157 | 1.7 | 4.3 | 0.00 | 0.00 | 0.00 | 35 | 1018.8 |
| 20260503203342 | 69 | 236 | 0.9 | 2.6 | 0.00 | 0.00 | 0.00 | 35 | 1018.9 |
| 20260503202842 | 69 | 158 | 0.9 | 2.6 | 0.00 | 0.00 | 0.00 | 36 | 1019.0 |
| 20260503202337 | 70 | 117 | 1.7 | 2.6 | 0.00 | 0.00 | 0.00 | 35 | 1019.0 |
| 20260503201838 | 70 | 188 | 0.9 | 4.3 | 0.00 | 0.00 | 0.00 | 38 | 1019.1 |
| 20260503201336 | 70 | 139 | 0.9 | 4.3 | 0.00 | 0.00 | 0.00 | 41 | 1019.2 |
| 20260503200838 | 70 | 195 | 0.0 | 1.7 | 0.00 | 0.00 | 0.00 | 40 | 1019.2 |
| 20260503200341 | 70 | 200 | 0.9 | 2.6 | 0.00 | 0.00 | 0.00 | 39 | 1019.2 |
| 20260503195837 | 70 | 165 | 0.9 | 3.5 | 0.00 | 0.00 | 0.00 | 40 | 1019.3 |
| 20260503195338 | 70 | 188 | 0.9 | 3.5 | 0.00 | 0.00 | 0.00 | 41 | 1019.5 |
| 20260503194839 | 70 | 158 | 3.5 | 4.3 | 0.00 | 0.00 | 0.00 | 42 | 1019.5 |
| 20260503194343 | 69 | 0 | 0.0 | 4.3 | 0.00 | 0.00 | 0.00 | 40 | 1019.5 |
| 20260503193841 | 70 | 152 | 0.0 | 6.1 | 0.00 | 0.00 | 0.00 | 40 | 1019.7 |
| 20260503193337 | 70 | 179 | 1.7 | 6.1 | 0.00 | 0.00 | 0.00 | 40 | 1019.6 |
| 20260503192836 | 70 | 222 | 1.7 | 4.3 | 0.00 | 0.00 | 0.00 | 39 | 1019.7 |
| 20260503192337 | 71 | 150 | 0.0 | 4.3 | 0.00 | 0.00 | 0.00 | 37 | 1019.9 |
| 20260503191839 | 70 | 194 | 0.9 | 3.5 | 0.00 | 0.00 | 0.00 | 38 | 1019.9 |
| 20260503191337 | 70 | 188 | 0.9 | 2.6 | 0.00 | 0.00 | 0.00 | 38 | 1020.0 |
| 20260503190838 | 70 | 191 | 0.9 | 6.1 | 0.00 | 0.00 | 0.00 | 39 | 1020.2 |
| 20260503190337 | 70 | 201 | 0.0 | 6.1 | 0.00 | 0.00 | 0.00 | 36 | 1020.1 |
| 20260503185842 | 70 | 131 | 2.6 | 3.5 | 0.00 | 0.00 | 0.00 | 37 | 1020.3 |
| 20260503185342 | 71 | 237 | 0.9 | 3.5 | 0.00 | 0.00 | 0.00 | 37 | 1020.4 |
| 20260503184839 | 70 | 44 | 1.7 | 6.1 | 0.00 | 0.00 | 0.00 | 39 | 1020.4 |
| 20260503184337 | 70 | 198 | 0.9 | 6.1 | 0.00 | 0.00 | 0.00 | 38 | 1020.5 |
| 20260503183842 | 70 | 223 | 0.9 | 3.5 | 0.00 | 0.00 | 0.00 | 39 | 1020.5 |
| 20260503183335 | 70 | 0 | 0.0 | 3.5 | 0.00 | 0.00 | 0.00 | 41 | 1020.5 |
| 20260503182837 | 70 | 105 | 1.7 | 4.3 | 0.00 | 0.00 | 0.00 | 39 | 1020.8 |
| 20260503182343 | 70 | 213 | 0.0 | 4.3 | 0.00 | 0.00 | 0.00 | 41 | 1020.8 |
| 20260503181837 | 70 | 192 | 1.7 | 3.5 | 0.00 | 0.00 | 0.00 | 39 | 1020.8 |
| 20260503181340 | 70 | 182 | 1.7 | 5.2 | 0.00 | 0.00 | 0.00 | 40 | 1020.8 |
| 20260503180837 | 70 | 202 | 0.9 | 5.2 | 0.00 | 0.00 | 0.00 | 39 | 1020.8 |
| 20260503180338 | 70 | 206 | 0.9 | 1.7 | 0.00 | 0.00 | 0.00 | 40 | 1020.8 |
| 20260503175841 | 69 | 207 | 0.9 | 1.7 | 0.00 | 0.00 | 0.00 | 39 | 1020.9 |
| 20260503175335 | 69 | 169 | 1.7 | 1.7 | 0.00 | 0.00 | 0.00 | 41 | 1020.8 |